Showing default

SPACEMOBILE-003, 61045

Orbit data source: Space-Track

SPACEMOBILE-003, 61045 is a payload satellite owned by AST & Science (US) in LEO that was launched on Thu, 12 Sep 2024 UTC via an FALCON 9 launch vehicle from the Air Force Eastern Test Range (AFETR). Payload-class satellites include a variety of spacecraft equipped with specific instruments for various scientific and technological missions. These include communications satellites like Starlink; space stations such as the ISS; scientific satellites like the Hubble; Earth observation satellites from companies like Planet Labs, Umbra, and HawkEye 360; GPS; miniature CubeSats for education and research; and military/defense satellites.

Loading next visibility...
Identifier
61045, 2024-163A
Orbit
LEO
Country
Flag of USUS
Related business
Manufacturer
AST & Science
Mission
Operational Commercial Communications
Bus & Motor
BW3, Unknown motor
Mass
1,500 kg wet, 1,500 kg dry
Launch date (UTC)
2024-09-12 (2 years ago)
Launch vehicle
FALCON 9
Launch site
Air Force Eastern Test Range (AFETR)
Object type
Payload
Rocket body
Debris
Shape & HBR
Box + 1 Plate, 6.5 m
Radar Cross Section
32.590 m², Large (>1 m²)

Expand to show TLE details & history
Last TLE update: 15 hours ago

TLE from 15 hours ago
0 SPACEMOBILE-003
1 61045U 24163A   26125.56596487 -.00043780  00000-0 -19560-2 0  9995
2 61045  52.9672 145.4388 0003632   1.8708 358.2299 15.20828590 91288
Epoch: 2026-05-05T13:34Z
TLE epoch observation values (Epoch: 2026-05-05T13:34:59.364Z)
Latitude
-0.00005°
Longitude
78.25244°
Altitude
501.717 km
Speed
7.616 km/s
True Right ascension
09h 41m 45s
True Declination
0° 00' 00"
Sunlit
Object was in daylight at epoch
Visualization orbit readout
Latitude
Unknown
Longitude
Unknown
Altitude
Unknown
Speed
Unknown
Apparent Right ascension
Unknown
Apparent Declination
Unknown
Sunlit
N/A
Visualization observer readout
Local Sidereal Time
12:03:07
Azimuth
Unknown
Elevation
Unknown
Doppler factor
Unknown
Orbital elements
Apogee altitude
506.126 km
Perigee altitude
501.127 km
Semi-major axis
6,881.763 km
Eccentricity
0.00036
Inclination
52.9672°
RAAN
145.4388°
Arg. of periapsis
1.8708°
True anomaly
358.22861°
Mean anomaly
358.2299°
Eccentric anomaly
358.22926°
Mean motion
3.80184 °/min
Orbital period
94.69 mins
BSTAR
-0.001956
Loading maneuver chart data...
Computing Atmospheric mass density...
Loading historical data...
Loading historical data...
Loading historical data...
Loading historical data...
Loading historical data...
Loading historical data...
Loading historical data...

Documentation

Showing up to 5 results
|